Location: Castiglione Fibocchi
(43.5333°N, 11.7667°E)
Time: 18:19:31
(UTC+00:00)

NPP - Pass Details

Date: 15 August 2020
Orbit: 826 x 828 km, 98.7° (Epoch: 18 September)

Event Time Altitude Azimuth Distance (km) Brightness Sun altitude
Rises 01:18:57 0° 11° (N) 3,376 7.9 -26.2°
Reaches altitude 10° 01:21:19 10° 9° (N) 2,438 6.9 -25.9°
Maximum altitude 01:26:40 68° 288° (WNW) 891 3.6 -25.4°
Enters shadow 01:27:04 65° 259° (W) 907 3.6 -25.3°
